Home > Weather > Oakville > Past weeks

Flag for Canada Weather for the Past 2 Weeks in Oakville, Ontario, Canada

Now
47 °F

Cool.


Feels Like: 42 °F
Forecast: 44 / 48 °F
Wind: 12 mph from North

Location: Burlington Piers

Current Time: May 1, 2016 at 12:48:06 AM

Latest Report: Apr 30, 2016 at 11:00 PM


Visibility: N/A

Pressure: 30.09 "Hg

Humidity: 66%

Dew Point: 36 °F

Location of OakvilleLocation

Historic Weather in Oakville — Graph

°F

Oakville Temperature Yesterday

Maximum temperature yesterday: 48 °F (at 10:00 PM)
Minimum temperature yesterday: 42 °F (at 7:00 AM)
Average temperature yesterday: 44 °F

High & Low Weather Summary for the Past Weeks

 TemperatureHumidityPressure
High77 °F (Apr 18, 6:00 PM)93% (Apr 22, 5:00 AM)30.49 "Hg (Apr 22, 5:00 AM)
Low36 °F (Apr 25, 4:00 PM)18% (Apr 17, 8:00 PM)29.79 "Hg (Apr 22, 4:00 AM)
Average45 °F62%30.15 "Hg
* Reported Apr 15 10:00 PM — Apr 30 10:00 PM, Oakville, Weather by CustomWeather, © 2016

Note: Actual official high and low records may vary slightly from our data, if they occured in-between our weather recording intervals... More about our weather records

Advertising

Oakville Weather History for the Previous 24 Hours

Scroll right to see more
 ConditionsComfort  
Time TempWeatherWind HumidityBarometerVisibility
10:00 PM
Sat, Apr 30
48 °FCool.8 mph57%30.11 "HgN/A
9:00 PM47 °FCool.9 mph55%30.11 "HgN/A
8:00 PM46 °FCool.6 mph60%30.12 "HgN/A
7:00 PM45 °FCool.5 mph65%30.13 "HgN/A
6:00 PM45 °FCool.2 mph63%30.15 "HgN/A
5:00 PM46 °FCool.5 mph58%30.15 "HgN/A
4:00 PM45 °FQuite cool.3 mph68%30.16 "HgN/A
3:00 PM42 °FQuite cool.6 mph78%30.18 "HgN/A
2:00 PM42 °FQuite cool.8 mph77%30.19 "HgN/A
1:00 PM43 °FQuite cool.9 mph69%30.20 "HgN/A
12:00 PM43 °FQuite cool.9 mph71%30.20 "HgN/A
11:00 AM43 °FQuite cool.9 mph75%30.22 "HgN/A
10:00 AM43 °FQuite cool.8 mph69%30.22 "HgN/A
9:00 AM43 °FQuite cool.5 mph71%30.22 "HgN/A
8:00 AM43 °FQuite cool.2 mph69%30.22 "HgN/A
7:00 AM42 °FQuite cool.5 mph61%30.19 "HgN/A
6:00 AM42 °FQuite cool.2 mph63%30.20 "HgN/A
5:00 AM43 °FQuite cool.No wind65%30.19 "HgN/A
4:00 AM43 °FQuite cool.3 mph64%30.17 "HgN/A
3:00 AM44 °FQuite cool.5 mph57%30.17 "HgN/A
2:00 AM44 °FQuite cool.7 mph54%30.16 "HgN/A
1:00 AM44 °FQuite cool.5 mph58%30.16 "HgN/A
12:00 AM45 °FCool.5 mph51%30.18 "HgN/A
Weather by CustomWeather, © 2016

See weather overviewHow to use our weather pages